Tracking 29065 objects as of 22-Jul-2024
HD Live streaming from Space Station
objects crossing your sky now

COSMOS 1275 DEB

Track COSMOS 1275 DEB now!
10-day predictions


NORAD ID: 42161
Int'l Code: 1981-053RZ
Perigee: 883.3 km
Apogee: 957.3 km
Inclination: 82.9 °
Period: 103.3 minutes
Semi major axis: 7291 km
RCS: Unknown
Launch date: June 4, 1981
Source: Commonwealth of Independent States (former USSR) (CIS)
Launch site: PLESETSK MISSILE AND SPACE COMPLEX (PKMTR)

Note: This is SATELLITE DEBRIS
Your satellite tracking list
Your tracking list is empty




NASA's NSSDC Master Catalog

Two Line Element Set (TLE):
1 42161U 81053RZ  24186.00182478  .00001775  00000-0  13077-2 0  9992
2 42161  82.9290 275.5392 0050774 281.7643  77.7830 13.94427311 40554
Source of the keplerian elements: AFSPC